Zurück zum Katalog

CZ-3 DEB

AktivHEO
NORAD 17425·DEBRIS·🇨🇳 China

Gestartet Feb 1, 1986 von Xichang Satellite Launch Center

Loading…

Nächste Überflüge (nächste 24 Stunden)

TLE

AktuellSource: Space-Track

Epoche: Sep 14, 2026, 07:22 UTC

1 17425U 86010C   26257.30712353  .00001389  00000-0  27926-2 0  9999
2 17425  31.2081   2.3334 6267671  98.4694 332.3970  3.51951186165453

Verfolge CZ-3 DEB in Echtzeit mit AllMySat

Download on the App Store